[[{"header":{"parameterUnit":"m.s-1","parameterCategory":1,"la1":30.2991,"la2":30.254,"lo1":-89.0895,"lo2":-89.0444,"dy":0.0017,"dx":0.0017,"nx":28,"ny":28,"refTime":"2023-08-20T21:00:00:Z","depth":0,"parameterNumber":2,"parameterNumberName":"U-component_of_WINDS"},"data":[0,0,0,0,0,0,0,0,0,0,0,0,0,0,0,0,0,0,0,0,0,0,0,0,0,0,0,0,0,0,0,0,0,0,0,0,0,0,0,0,0,0,0,0,0,0,0,0,0,0,0,0,0,0,0,0,0,0,-2.651,-2.6509,0,-2.6441,-2.644,-2.6439,-2.6269,-2.6265,-2.6262,-2.6259,-2.6191,-2.6193,-2.6194,0,0,0,0,0,0,0,0,0,0,0,0,0,-2.6497,-2.6498,-2.651,-2.6509,-2.6508,-2.6441,-2.644,-2.6439,-2.627,-2.6265,-2.6261,-2.6257,-2.6191,-2.6193,-2.6194,0,0,0,0,0,0,0,0,0,0,0,0,0,-2.6473,-2.6498,-2.651,-2.6415,-2.6406,-2.6441,-2.644,-2.6439,-2.6271,-2.6265,-2.626,-2.6255,-2.619,-2.6192,-2.6195,-2.6317,0,0,-2.6202,-2.6203,0,0,0,0,0,0,0,0,-2.6474,-2.6473,-2.643,-2.6422,-2.6412,-2.6358,-2.641,-2.6398,-2.6272,-2.6322,-2.6258,-2.6252,-2.6251,-2.6248,-2.6247,-2.6313,-2.6311,-2.6202,-2.6203,-2.6204,-2.6205,0,0,0,0,0,0,0,-2.6476,-2.6475,-2.6482,-2.643,-2.6418,-2.6377,-2.6368,-2.6407,-2.6318,-2.6317,-2.6305,-2.6299,-2.6245,-2.6245,-2.6244,-2.631,-2.6202,-2.6204,-2.6205,-2.6206,-2.647,-2.6476,0,0,0,0,0,0,-2.6491,-2.6478,-2.6484,-2.648,-2.643,-2.6382,-2.6371,-2.6381,-2.6317,-2.6302,-2.6304,-2.6291,-2.6244,-2.6242,-2.6241,-2.6378,-2.6204,-2.6207,-2.6208,-2.6465,-2.6472,-2.6478,0,0,0,0,0,0,-2.6492,-2.6493,-2.6487,-2.6476,-2.6472,-2.6387,-2.64,-2.6382,-2.6382,-2.6306,-2.629,-2.632,-2.624,-2.6238,-2.6298,-2.6374,-2.6208,-2.621,-2.6458,-2.6467,-2.6475,-2.6655,0,0,0,0,0,0,-2.6492,-2.6494,-2.654,-2.6478,-2.6473,-2.6546,-2.6404,-2.6385,-2.6386,-2.6369,-2.6317,-2.6304,-2.6235,-2.6296,-2.6301,-2.6374,-2.6212,-2.6451,-2.6462,-2.6472,-2.6642,-2.6668,-2.6691,0,0,0,0,0,-2.6492,-2.6594,-2.6543,-2.6545,-2.6528,-2.655,-2.6548,-2.6466,-2.6393,-2.6438,-2.6389,-2.6305,-2.6365,-2.6304,-2.6308,-2.6383,-2.6446,-2.6459,-2.6471,-2.6631,-2.6663,-2.6691,0,0,0,0,0,0,-2.6669,-2.6585,-2.6527,-2.6612,-2.6589,-2.6522,-2.6576,-2.6503,-2.6502,-2.6486,-2.6386,-2.6376,-2.645,-2.6422,-2.6355,-2.6496,-2.6392,-2.6406,-2.6512,-2.6542,-2.6566,-2.6571,-2.6214,0,0,0,0,0,-2.6718,-2.6742,-2.6667,-2.675,-2.6741,-2.6661,-2.6668,-2.6607,-2.658,-2.657,-2.6525,-2.6504,-2.6516,-2.6528,-2.6536,-2.6637,-2.6623,-2.669,-2.6715,-2.6736,-2.6749,-2.6799,-2.6828,-2.6519,-2.6519,-2.6519,0,0,-2.6819,-2.6776,-2.6798,-2.6784,-2.676,-2.6788,-2.6654,-2.669,-2.671,-2.6576,-2.6629,-2.6596,-2.6565,-2.6646,-2.6679,-2.6625,-2.6831,-2.6752,-2.6769,-2.6771,-2.6815,-2.6844,-2.687,-2.6528,-2.6526,-2.6525,0,0,-2.7017,-2.6988,-2.7052,-2.703,-2.6993,-2.6939,-2.6955,-2.6898,-2.687,-2.6922,-2.6821,-2.6844,-2.6869,-2.685,-2.6844,-2.7035,-2.6957,-2.704,-2.7169,-2.7219,-2.7243,-2.7264,-2.7331,-2.7356,-2.7054,-2.7054,-2.7054,0,-2.7148,-2.7186,-2.7095,-2.7137,-2.7133,-2.7011,-2.7076,-2.7059,-2.7028,-2.7029,-2.6968,-2.6996,-2.6967,-2.7041,-2.7087,-2.7087,-2.7101,-2.7045,-2.7247,-2.7267,-2.7285,-2.7348,-2.7374,-2.7064,-2.7063,-2.7062,-2.7061,0,-2.7348,-2.7375,-2.7432,-2.7403,-2.7406,-2.746,-2.7377,-2.7392,-2.733,-2.7282,-2.7336,-2.7296,-2.7293,-2.7306,-2.7248,-2.7372,-2.7339,-2.7265,-2.7157,-2.7327,-2.7384,-2.7407,-2.7079,-2.7075,-2.7072,-2.707,0,0,-2.7657,-2.7576,-2.7598,-2.7582,-2.7533,-2.7553,-2.76,-2.7596,-2.761,-2.7593,-2.763,-2.7653,-2.7583,-2.7576,-2.7514,-2.7558,-2.771,-2.7477,-2.7475,-2.7521,-2.7843,-2.79,-2.7929,-2.7658,-2.7663,-2.7666,-2.7846,0,-2.7842,-2.7918,-2.7837,-2.7929,-2.7953,-2.7836,-2.7878,-2.7852,-2.7809,-2.7823,-2.7775,-2.7792,-2.7699,-2.7694,-2.7732,-2.7684,-2.7773,-2.7669,-2.7692,-2.7694,-2.7703,-2.7959,-2.8018,-2.819,-2.7867,-2.7871,-2.7874,0,-2.8069,-2.8061,-2.8155,-2.8098,-2.8104,-2.8143,-2.8132,-2.8147,-2.8115,-2.808,-2.8073,-2.7997,-2.8039,-2.7935,-2.7992,-2.7923,-2.7928,-2.7905,-2.791,-2.7908,-2.7794,-2.7964,-2.8243,-2.8268,-2.7908,-2.7906,-2.7903,0,-2.8284,-2.8296,-2.8353,-2.8344,-2.8279,-2.8308,-2.8283,-2.8246,-2.8248,-2.8239,-2.8239,-2.8236,-2.8234,-2.8233,-2.8158,-2.809,-2.8225,-2.8115,-2.8197,-2.8199,-2.823,-2.8229,-2.8514,-2.8235,-2.8235,-2.8234,-2.8234,0,-2.85,-2.8562,-2.8448,-2.8484,-2.855,-2.8456,-2.8524,-2.8487,-2.8454,-2.8481,-2.8381,-2.8408,-2.8307,-2.8324,-2.8266,-2.8322,-2.8322,-2.8295,-2.8279,-2.8303,-2.8307,-2.8305,-2.829,-2.8241,-2.824,-2.8238,-2.8237,0,-2.875,-2.8677,-2.8731,-2.8665,-2.8649,-2.8701,-2.8644,-2.8674,-2.8623,-2.8657,-2.866,-2.8581,-2.8595,-2.852,-2.8522,-2.8482,-2.8567,-2.8531,-2.8577,-2.8566,-2.8652,-2.8644,-2.8944,-2.8978,-2.8679,-2.8682,-2.8685,0,-2.8892,-2.8937,-2.8874,-2.8884,-2.8863,-2.888,-2.8881,-2.8791,-2.8796,-2.8763,-2.8797,-2.8802,-2.8802,-2.883,-2.8773,-2.8773,-2.8735,-2.884,-2.8735,-2.8758,-2.8736,-2.8734,-2.8737,-2.8862,-2.8866,-2.8869,-2.8872,0,-2.9152,-2.9113,-2.9117,-2.911,-2.9113,-2.9103,-2.9086,-2.91,-2.9002,-2.9014,-2.9026,-2.9025,-2.9025,-2.9032,-2.902,-2.8994,-2.8917,-2.8905,-2.8924,-2.8949,-2.8974,-2.8961,-2.8636,-2.8899,-2.8896,-2.8894,-2.8893,-2.8891,-2.9351,-2.9385,-2.9346,-2.9354,-2.9331,-2.9318,-2.9342,-2.9293,-2.9301,-2.9293,-2.924,-2.9262,-2.9228,-2.9204,-2.9185,-2.9202,-2.9152,-2.9179,-2.9186,-2.9194,-2.9209,-2.8972,-2.9199,-2.9198,-2.9198,-2.9197,-2.9196,0,-2.9605,-2.9573,-2.9582,-2.956,-2.9567,-2.9492,-2.9469,-2.948,-2.95,-2.9474,-2.9475,-2.9489,-2.9494,-2.9438,-2.9436,-2.946,-2.9424,-2.9462,-2.9459,-2.9454,-2.9254,-2.9238,-2.9491,-2.9491,-2.9491,-2.9491,-2.949,-2.949,-2.9737,-2.9789,-2.9746,-2.9786,-2.9754,-2.9773,-2.9766,-2.9753,-2.9732,-2.9751,-2.9754,-2.9717,-2.9679,-2.9673,-2.9674,-2.9657,-2.9661,-2.9711,-2.9683,-2.9497,-2.9468,-2.9441,-2.9425,-2.9713,-2.9713,-2.9881,-2.9882,-2.9883]},{"header":{"parameterUnit":"m.s-1","parameterCategory":1,"la1":30.2991,"la2":30.254,"lo1":-89.0895,"lo2":-89.0444,"dy":0.0017,"dx":0.0017,"nx":28,"ny":28,"refTime":"2023-08-20T21:00:00:Z","depth":0,"parameterNumber":3,"parameterNumberName":"V-component_of_WINDS"},"data":[0,0,0,0,0,0,0,0,0,0,0,0,0,0,0,0,0,0,0,0,0,0,0,0,0,0,0,0,0,0,0,0,0,0,0,0,0,0,0,0,0,0,0,0,0,0,0,0,0,0,0,0,0,0,0,0,0,0,-0.8708,-0.8709,0,-0.875,-0.8751,-0.8751,-0.8798,-0.8799,-0.8799,-0.88,-0.884,-0.884,-0.8841,0,0,0,0,0,0,0,0,0,0,0,0,0,-0.8665,-0.8666,-0.8708,-0.8709,-0.8709,-0.875,-0.8751,-0.8751,-0.8798,-0.8799,-0.88,-0.88,-0.884,-0.884,-0.8841,0,0,0,0,0,0,0,0,0,0,0,0,0,-0.8693,-0.8666,-0.8708,-0.8738,-0.8741,-0.875,-0.8751,-0.8752,-0.8798,-0.8799,-0.88,-0.8801,-0.884,-0.884,-0.8841,-0.8824,0,0,-0.8843,-0.8843,0,0,0,0,0,0,0,0,-0.8691,-0.8695,-0.8733,-0.8736,-0.8739,-0.877,-0.875,-0.8776,-0.8797,-0.8776,-0.88,-0.8801,-0.8816,-0.8818,-0.8824,-0.8826,-0.8828,-0.8843,-0.8843,-0.8844,-0.8844,0,0,0,0,0,0,0,-0.8689,-0.8693,-0.8725,-0.8733,-0.8737,-0.8748,-0.8753,-0.8755,-0.8789,-0.8778,-0.8781,-0.8786,-0.8818,-0.8823,-0.8825,-0.8828,-0.8843,-0.8843,-0.8844,-0.8844,-0.8817,-0.8816,0,0,0,0,0,0,-0.8684,-0.8691,-0.8724,-0.8726,-0.8717,-0.8748,-0.8753,-0.8759,-0.879,-0.8795,-0.8785,-0.8788,-0.8822,-0.8824,-0.8827,-0.8808,-0.8844,-0.8844,-0.8845,-0.8818,-0.8817,-0.8816,0,0,0,0,0,0,-0.8682,-0.8686,-0.8722,-0.871,-0.8715,-0.8747,-0.8753,-0.8759,-0.8765,-0.8795,-0.8801,-0.8785,-0.8823,-0.8826,-0.8824,-0.881,-0.8844,-0.8845,-0.8819,-0.8818,-0.8816,-0.877,0,0,0,0,0,0,-0.8681,-0.8685,-0.868,-0.8709,-0.8716,-0.872,-0.8752,-0.8759,-0.8766,-0.8771,-0.8796,-0.8801,-0.8824,-0.8823,-0.8825,-0.8811,-0.8846,-0.8821,-0.8819,-0.8817,-0.8773,-0.8767,-0.8762,0,0,0,0,0,-0.8679,-0.8665,-0.868,-0.8683,-0.871,-0.8719,-0.8722,-0.8749,-0.8765,-0.8759,-0.8778,-0.8801,-0.8812,-0.8823,-0.8825,-0.8811,-0.8822,-0.8819,-0.8817,-0.8776,-0.8769,-0.8763,0,0,0,0,0,0,-0.8633,-0.867,-0.8686,-0.8681,-0.8696,-0.8727,-0.872,-0.8741,-0.8751,-0.8754,-0.8786,-0.8792,-0.8786,-0.8799,-0.881,-0.8796,-0.882,-0.8818,-0.8788,-0.8781,-0.8776,-0.8772,-0.8846,0,0,0,0,0,-0.8622,-0.8627,-0.8659,-0.8651,-0.8658,-0.8688,-0.8693,-0.8712,-0.8729,-0.8735,-0.8754,-0.8769,-0.8776,-0.8779,-0.8787,-0.8776,-0.8781,-0.8768,-0.8762,-0.8758,-0.8755,-0.8748,-0.8742,-0.8808,-0.8808,-0.8808,0,0,-0.8599,-0.862,-0.8621,-0.8642,-0.8657,-0.866,-0.8693,-0.8695,-0.8698,-0.8735,-0.8735,-0.8749,-0.8768,-0.8761,-0.8759,-0.8771,-0.8738,-0.8754,-0.875,-0.875,-0.8745,-0.8739,-0.8733,-0.8806,-0.8806,-0.8806,0,0,-0.856,-0.8577,-0.8572,-0.8586,-0.8607,-0.8627,-0.8626,-0.8653,-0.8664,-0.8664,-0.8692,-0.8695,-0.8706,-0.8718,-0.8725,-0.8689,-0.8709,-0.8691,-0.8662,-0.8655,-0.865,-0.8645,-0.8631,-0.8626,-0.8689,-0.8688,-0.8688,0,-0.8529,-0.8536,-0.8567,-0.8567,-0.8575,-0.861,-0.8604,-0.8616,-0.8638,-0.8642,-0.8656,-0.8671,-0.8686,-0.8681,-0.8672,-0.8678,-0.8676,-0.8688,-0.8648,-0.8644,-0.864,-0.8627,-0.8622,-0.8686,-0.8686,-0.8686,-0.8687,0,-0.8496,-0.8501,-0.8494,-0.8516,-0.8523,-0.852,-0.8549,-0.8552,-0.8571,-0.8588,-0.8587,-0.8607,-0.8618,-0.8619,-0.8637,-0.8617,-0.8624,-0.8643,-0.8667,-0.8631,-0.8619,-0.8614,-0.8682,-0.8683,-0.8684,-0.8685,0,0,-0.8428,-0.8466,-0.8463,-0.8473,-0.8499,-0.8502,-0.8501,-0.8513,-0.8515,-0.8529,-0.8527,-0.8536,-0.8553,-0.8561,-0.8581,-0.8575,-0.8544,-0.8595,-0.8596,-0.8583,-0.852,-0.8505,-0.8499,-0.8558,-0.8557,-0.8556,-0.8518,0,-0.8392,-0.8393,-0.842,-0.8412,-0.8415,-0.8449,-0.8447,-0.8462,-0.8478,-0.8483,-0.8501,-0.8506,-0.8529,-0.8534,-0.853,-0.8548,-0.8531,-0.8552,-0.8555,-0.8555,-0.8548,-0.8493,-0.8477,-0.844,-0.8514,-0.8513,-0.8513,0,-0.835,-0.8362,-0.8355,-0.8381,-0.8383,-0.8381,-0.8394,-0.8399,-0.8416,-0.8428,-0.8437,-0.8459,-0.8458,-0.8482,-0.848,-0.8493,-0.8496,-0.8505,-0.8505,-0.8505,-0.853,-0.849,-0.8429,-0.8423,-0.8506,-0.8507,-0.8507,0,-0.8299,-0.8314,-0.8311,-0.8318,-0.8348,-0.8346,-0.8358,-0.8377,-0.8382,-0.8393,-0.8397,-0.8407,-0.8412,-0.8419,-0.8443,-0.8459,-0.8438,-0.8464,-0.8446,-0.8446,-0.8439,-0.8439,-0.8376,-0.8444,-0.8444,-0.8444,-0.8444,0,-0.8255,-0.8249,-0.8288,-0.8286,-0.828,-0.8311,-0.8303,-0.8318,-0.8334,-0.8335,-0.8365,-0.8364,-0.8397,-0.84,-0.8419,-0.8413,-0.8416,-0.8424,-0.8429,-0.8421,-0.8419,-0.8422,-0.8425,-0.8442,-0.8443,-0.8443,-0.8443,0,-0.8197,-0.8223,-0.8222,-0.8251,-0.8257,-0.8251,-0.8275,-0.8274,-0.8292,-0.8292,-0.8294,-0.8323,-0.8328,-0.8353,-0.8364,-0.8376,-0.8363,-0.8374,-0.8357,-0.836,-0.8341,-0.8341,-0.8276,-0.8269,-0.8342,-0.8341,-0.8341,0,-0.8166,-0.8162,-0.819,-0.8193,-0.8204,-0.8209,-0.8215,-0.8244,-0.8249,-0.8268,-0.8263,-0.8271,-0.8279,-0.8285,-0.8305,-0.8313,-0.8324,-0.83,-0.8325,-0.8316,-0.8321,-0.832,-0.8319,-0.8294,-0.8293,-0.8293,-0.8292,0,-0.8109,-0.8122,-0.813,-0.8141,-0.8147,-0.8158,-0.817,-0.817,-0.8203,-0.8207,-0.8212,-0.8218,-0.8229,-0.8236,-0.8247,-0.8259,-0.828,-0.8284,-0.828,-0.8271,-0.8261,-0.8264,-0.8341,-0.8285,-0.8286,-0.8286,-0.8287,-0.8287,-0.8062,-0.806,-0.8079,-0.8086,-0.8099,-0.8109,-0.8109,-0.8127,-0.8133,-0.8145,-0.8162,-0.8165,-0.8181,-0.8199,-0.8209,-0.821,-0.8223,-0.8218,-0.8216,-0.8214,-0.8209,-0.8262,-0.8213,-0.8213,-0.8213,-0.8214,-0.8214,0,-0.8005,-0.8019,-0.8025,-0.8042,-0.8047,-0.8068,-0.8082,-0.8085,-0.8087,-0.8101,-0.8108,-0.8114,-0.812,-0.8142,-0.815,-0.8147,-0.8157,-0.8148,-0.8148,-0.8149,-0.8198,-0.82,-0.814,-0.814,-0.814,-0.814,-0.814,-0.814,-0.7976,-0.7972,-0.7987,-0.799,-0.8004,-0.8008,-0.8014,-0.8023,-0.8034,-0.804,-0.8045,-0.806,-0.8076,-0.8085,-0.8091,-0.8098,-0.8098,-0.8086,-0.8095,-0.8139,-0.8146,-0.8153,-0.8155,-0.8086,-0.8086,-0.8046,-0.8045,-0.8045]}]]